Location: ??
(35.5052°N, 139.7262°E)
Time: 23:33:09
(UTC+00:00)

USA 307 - Pass Details

Date: 20 June 2021
Orbit: 565 x 576 km, 54.0° (Epoch: 17 July)

Event Time Altitude Azimuth Distance (km) Brightness Sun altitude
Exits shadow 16:38:03 26° 311° (NW) 1,126 4.4 -25.1°
Maximum altitude 16:38:34 27° 324° (NW) 1,104 4.5 -25.0°
Drops below altitude 10° 16:42:13 10° 23° (NNE) 1,866 6.6 -24.6°
Sets 16:44:44 0° 36° (NE) 2,764 7.8 -24.4°
